FENGYUN 1C DEB, 37427

Orbit data source: Space-Track

FENGYUN 1C DEB, 37427 is space debris in SSO originally from a launch on Mon, 10 May 1999 UTC launched from the Taiyaun Space Center, China (TSC). Fengyun 1C debris stems from the Chinese weather satellite Fengyun-1C, which was intentionally destroyed by a Chinese anti-satellite missile in 2007. This event dramatically increased the amount of space debris, with thousands of trackable fragments posing hazards to satellites and human spaceflight. The Fengyun 1C debris cloud has become a focal point in discussions about space sustainability and the need for international regulations to prevent the creation of new debris.

Loading next visibility...
Identifier
37427, 1999-025EGV
Orbit
SSO
Country
Flag of CNCN / PRC
Related business
Manufacturer
Unknown
Mission
Spacecraft
Bus & Motor
Unknown
Mass
Unknown
Launch date (UTC)
1999-05-10 (27 years ago)
Launch vehicle
Unknown
Launch site
Taiyaun Space Center, China (TSC)
Object type
Payload
Rocket body
Debris
Shape & HBR
Unknown shape, 0.1 m
Radar Cross Section
Small (<0.1 m²)

Expand to show TLE details & history
Last TLE update: 2 days ago

TLE from 2 days ago
0 FENGYUN 1C DEB
1 37427U 99025EGV 26235.21285763  .00006631  00000-0  37770-3 0  9993
2 37427  98.6440  50.0060 0169401 183.3227 176.6885 15.01804327641232
Epoch: 2026-08-23T05:06Z
TLE epoch observation values (Epoch: 2026-08-23T05:06:30.899Z)
Latitude
0.00003°
Longitude
1.8651°
Altitude
681.752 km
Speed
7.452 km/s
True Right ascension
03h 20m 01s
True Declination
0° 00' 00"
Sunlit
Object was in daylight at epoch
Visualization orbit readout
Latitude
Unknown
Longitude
Unknown
Altitude
Unknown
Speed
Unknown
Apparent Right ascension
Unknown
Apparent Declination
Unknown
Sunlit
N/A
Visualization observer readout
Local Sidereal Time
14:54:07
Azimuth
Unknown
Elevation
Unknown
Doppler factor
Unknown
Orbital elements
Apogee altitude
675.884 km
Perigee altitude
440.873 km
Semi-major axis
6,936.515 km
Eccentricity
0.01694
Inclination
98.644°
RAAN
50.006°
Arg. of periapsis
183.3227°
True anomaly
176.79831°
Mean anomaly
176.6885°
Eccentric anomaly
176.74363°
Mean motion
3.75691 °/min
Orbital period
95.82 mins
BSTAR
0.0003777
Loading maneuver chart data...
Computing Atmospheric mass density...

Documentation

Showing up to 5 results
|